Location: Bakov nad Jizerou
(50.4784°N, 14.9394°E)
Time: 23:22:41
(UTC+00:00)

Cosmos 2278 Rocket - Pass Details

Date: 16 June 2021
Orbit: 840 x 846 km, 71.0° (Epoch: 23 July)

Event Time Altitude Azimuth Distance (km) Brightness Sun altitude
Rises 22:06:23 0° 329° (NNW) 3,412 6.8 -15.2°
Reaches altitude 10° 22:08:50 10° 329° (NNW) 2,475 5.8 -15.2°
Maximum altitude 22:14:31 79° 244° (WSW) 867 2.2 -15.4°
Enters shadow 22:18:05 24° 160° (SSE) 1,696 3.2 -15.5°
